Weather History for Port Huron, MI

Change the Weather History Date:

Wednesday, February 12, 2014

  Actual Average (KMTC) Record (KMTC)
Temperature  
Mean Temperature 0 °F -  
Max Temperature 19 °F 31 °F 62 °F (1999)
Min Temperature -18 °F 16 °F -11 °F (2014)
Degree Days  
Heating Degree Days 64    
Moisture  
Dew Point -5 °F    
Average Humidity 71    
Maximum Humidity 85    
Minimum Humidity 54    
Precipitation  
Precipitation 0.00 in - - ()
Sea Level Pressure  
Sea Level Pressure 30.28 in    
Wind  
Wind Speed 2 mph (South)    
Max Wind Speed 12 mph    
Max Gust Speed -    
Visibility 9 miles    
Events Snow    
Averages and records for this station are not official NWS values.
T = Trace of Precipitation, MM = Missing Value Source: NWS Daily Summary

Daily Weather History Graph

Daily Weather History Graph

Search for Another Location

Airport:

Trip Planner

Search our weather history database for the weather conditions in past years. The results will help you decide how hot, cold, wet, or windy it might be!

Date:

Astronomy

Feb. 12, 2014 Rise Set
Actual Time 7:31 AM EST 5:57 PM EST
Civil Twilight 7:02 AM EST 6:26 PM EST
Nautical Twilight 6:29 AM EST 7:00 PM EST
Astronomical Twilight 5:56 AM EST 7:33 PM EST
Moon 4:09 PM EST (2/12) 5:49 AM EST (2/12)
Length of Visible Light 11h 24m
Length of Day
10h 26m
Waxing Gibbous, 95% of the Moon is Illuminated
Feb 12
Waxing Gibbous
Feb 14
Full
Feb 22
Last Quarter
Mar 1
New
Mar 8
First Quarter

Hourly Weather History & Observations

Time (EST) Temp. Windchill Dew Point Humidity Pressure Visibility Wind Dir Wind Speed Gust Speed Precip Events Conditions
12:18 AM -11.2 °F - -16.6 °F 77% 30.46 in 10.0 mi Calm Calm - N/A   Clear
12:38 AM -9.4 °F - -14.8 °F 77% 30.46 in 10.0 mi Calm Calm - N/A   Clear
12:58 AM -11.2 °F - -16.6 °F 77% 30.46 in 10.0 mi Calm Calm - N/A   Clear
1:18 AM -11.2 °F - -16.6 °F 77% 30.45 in 10.0 mi Calm Calm - N/A   Clear
1:38 AM -14.8 °F - -20.2 °F 77% 30.44 in 10.0 mi Calm Calm - N/A   Clear
1:58 AM -14.8 °F - -22.0 °F 70% 30.45 in 10.0 mi Calm Calm - N/A   Clear
2:18 AM -14.8 °F - -20.2 °F 77% 30.44 in 10.0 mi Calm Calm - N/A   Clear
2:38 AM -13.0 °F - -18.4 °F 77% 30.43 in 10.0 mi Calm Calm - N/A   Clear
2:58 AM -13.0 °F - -20.2 °F 70% 30.43 in 10.0 mi Calm Calm - N/A   Clear
3:18 AM -14.8 °F - -20.2 °F 77% 30.42 in 10.0 mi Calm Calm - N/A   Clear
3:38 AM -13.0 °F - -18.4 °F 77% 30.42 in 10.0 mi Calm Calm - N/A   Clear
3:58 AM -14.8 °F - -20.2 °F 77% 30.41 in 10.0 mi Calm Calm - N/A   Clear
4:18 AM -13.0 °F - -18.4 °F 77% 30.40 in 10.0 mi Calm Calm - N/A   Clear
4:38 AM -14.8 °F - -22.0 °F 70% 30.40 in 10.0 mi Calm Calm - N/A   Clear
4:58 AM -16.6 °F - -22.0 °F 76% 30.41 in 7.0 mi Calm Calm - N/A   Clear
5:18 AM -18.4 °F - -23.8 °F 76% 30.42 in 10.0 mi Calm Calm - N/A   Clear
5:38 AM -16.6 °F - -22.0 °F 76% 30.41 in 10.0 mi Calm Calm - N/A   Clear
5:58 AM -18.4 °F - -23.8 °F 76% 30.41 in 10.0 mi Calm Calm - N/A   Clear
6:18 AM -18.4 °F - -23.8 °F 76% 30.41 in 10.0 mi Calm Calm - N/A   Clear
6:38 AM -18.4 °F - -23.8 °F 76% 30.40 in 10.0 mi Calm Calm - N/A   Clear
6:58 AM -18.4 °F - -23.8 °F 76% 30.40 in 7.0 mi Calm Calm - N/A Snow Light Snow
7:18 AM -18.4 °F - -23.8 °F 76% 30.38 in 10.0 mi Calm Calm - N/A   Clear
7:38 AM -16.6 °F - -23.8 °F 70% 30.39 in 10.0 mi Calm Calm - N/A   Clear
7:58 AM -16.6 °F - -23.8 °F 70% 30.39 in 7.0 mi Calm Calm - N/A   Clear
8:18 AM -16.6 °F - -23.8 °F 70% 30.37 in 7.0 mi Calm Calm - N/A   Clear
8:38 AM -14.8 °F - -20.2 °F 77% 30.37 in 7.0 mi Calm Calm - N/A   Scattered Clouds
8:58 AM -13.0 °F - -18.4 °F 77% 30.36 in 4.0 mi Calm Calm - N/A   Haze
9:18 AM -9.4 °F - -14.8 °F 77% 30.35 in 5.0 mi Calm Calm - N/A   Haze
9:38 AM -5.8 °F - -9.4 °F 84% 30.35 in 5.0 mi Calm Calm - N/A   Haze
9:58 AM 3.2 °F -7.8 °F -0.4 °F 85% 30.34 in 10.0 mi SSE 5.8 mph - N/A   Clear
10:18 AM 5.0 °F -5.6 °F 1.4 °F 85% 30.34 in 10.0 mi SSE 5.8 mph - N/A   Clear
10:38 AM 6.8 °F -2.0 °F 1.4 °F 79% 30.34 in 10.0 mi SSE 4.6 mph - N/A   Clear
10:58 AM 8.6 °F 0.1 °F 3.2 °F 79% 30.34 in 10.0 mi SE 4.6 mph - N/A   Clear
11:18 AM 10.4 °F -4.1 °F 3.2 °F 73% 30.33 in 10.0 mi SSW 11.5 mph - N/A   Clear
11:38 AM 12.2 °F 0.7 °F 3.2 °F 67% 30.32 in 10.0 mi South 8.1 mph - N/A   Clear
11:58 AM 12.2 °F 1.7 °F 3.2 °F 67% 30.30 in 10.0 mi South 6.9 mph - N/A   Clear
12:18 PM 14.0 °F 3.9 °F 3.2 °F 62% 30.29 in 10.0 mi South 6.9 mph - N/A   Clear
12:38 PM 14.0 °F 2.0 °F 3.2 °F 62% 30.28 in 10.0 mi South 9.2 mph - N/A   Clear
12:58 PM 15.8 °F 4.2 °F 3.2 °F 58% 30.26 in 10.0 mi South 9.2 mph - N/A   Clear
1:18 PM 15.8 °F 5.1 °F 5.0 °F 62% 30.25 in 10.0 mi South 8.1 mph - N/A   Clear
1:38 PM 15.8 °F 4.2 °F 3.2 °F 58% 30.24 in 10.0 mi South 9.2 mph - N/A   Clear
1:58 PM 17.6 °F 7.3 °F 5.0 °F 58% 30.22 in 10.0 mi South 8.1 mph - N/A   Clear
2:18 PM 17.6 °F 7.3 °F 5.0 °F 58% 30.20 in 10.0 mi South 8.1 mph - N/A   Clear
2:38 PM 17.6 °F 6.4 °F 5.0 °F 58% 30.18 in 10.0 mi South 9.2 mph - N/A   Clear
2:58 PM 19.4 °F 9.5 °F 5.0 °F 54% 30.18 in 10.0 mi South 8.1 mph - N/A   Clear
3:18 PM 19.4 °F 7.9 °F 5.0 °F 54% 30.17 in 10.0 mi SSE 10.4 mph - N/A   Clear
3:38 PM 19.4 °F 7.2 °F 5.0 °F 54% 30.16 in 10.0 mi South 11.5 mph - N/A   Clear
3:58 PM 19.4 °F 8.6 °F 5.0 °F 54% 30.16 in 10.0 mi SSE 9.2 mph - N/A   Clear
4:18 PM 17.6 °F 9.3 °F 5.0 °F 58% 30.16 in 10.0 mi SSW 5.8 mph - N/A   Clear
4:38 PM 17.6 °F 8.2 °F 5.0 °F 58% 30.16 in 10.0 mi South 6.9 mph - N/A   Clear
4:58 PM 17.6 °F 9.3 °F 5.0 °F 58% 30.16 in 10.0 mi South 5.8 mph - N/A   Clear
5:18 PM 17.6 °F 8.2 °F 5.0 °F 58% 30.16 in 10.0 mi South 6.9 mph - N/A   Clear
5:38 PM 14.0 °F 3.9 °F 5.0 °F 67% 30.16 in 10.0 mi South 6.9 mph - N/A   Clear
5:58 PM 15.8 °F 10.2 °F 5.0 °F 62% 30.15 in 10.0 mi SSE 3.5 mph - N/A   Clear
6:18 PM 14.0 °F 6.5 °F 5.0 °F 67% 30.16 in 10.0 mi SSE 4.6 mph - N/A   Clear
6:38 PM 14.0 °F - 5.0 °F 67% 30.15 in 10.0 mi Calm Calm - N/A   Clear
6:58 PM 12.2 °F 6.1 °F 5.0 °F 73% 30.15 in 10.0 mi SE 3.5 mph - N/A   Clear
7:18 PM 10.4 °F 4.0 °F 3.2 °F 73% 30.15 in 10.0 mi SSE 3.5 mph - N/A   Clear
7:38 PM 10.4 °F 4.0 °F 3.2 °F 73% 30.15 in 10.0 mi SSE 3.5 mph - N/A   Clear
7:58 PM 10.4 °F 4.0 °F 3.2 °F 73% 30.15 in 10.0 mi SSE 3.5 mph - N/A   Mostly Cloudy
8:18 PM 10.4 °F 4.0 °F 5.0 °F 79% 30.16 in 10.0 mi SSE 3.5 mph - N/A   Overcast
8:38 PM 10.4 °F - 5.0 °F 79% 30.16 in 7.0 mi Calm Calm - N/A   Overcast
8:58 PM 10.4 °F 4.0 °F 5.0 °F 79% 30.16 in 5.0 mi South 3.5 mph - N/A   Haze
9:18 PM 12.2 °F 6.1 °F 5.0 °F 73% 30.16 in 7.0 mi South 3.5 mph - N/A   Overcast
9:38 PM 10.4 °F - 5.0 °F 79% 30.15 in 5.0 mi Calm Calm - N/A   Haze
9:58 PM 12.2 °F - 5.0 °F 73% 30.14 in 5.0 mi Calm Calm - N/A   Haze
10:18 PM 12.2 °F - 5.0 °F 73% 30.13 in 5.0 mi Calm Calm - N/A   Haze
10:38 PM 12.2 °F - 6.8 °F 79% 30.13 in 5.0 mi Calm Calm - N/A   Haze
10:58 PM 12.2 °F - 6.8 °F 79% 30.12 in 7.0 mi Calm Calm - N/A   Overcast
11:18 PM 12.2 °F - 6.8 °F 79% 30.11 in 7.0 mi Calm Calm - N/A   Overcast
11:38 PM 12.2 °F - 6.8 °F 79% 30.10 in 7.0 mi Calm Calm - N/A   Overcast
11:58 PM 12.2 °F 4.3 °F 6.8 °F 79% 30.09 in 7.0 mi SSE 4.6 mph - N/A   Overcast